Temp
-2 -2 -2 -2 -2 -2 -2 -1 -1 -1 -1 -0 0 1 1 2 2 3 4 5 7 7
-3 -3 -3 -3 -3 -3 -2 -2 -2 -2 -2 -2 -1 -0 0 1 1 2 3 3 4 5
-4 -4 -4 -4 -4 -4 -3 -3 -3 -3 -3 -2 -2 -2 -1 -0 1 1 2 2 3 4
-4 -4 -4 -4 -4 -4 -4 -4 -4 -4 -3 -3 -3 -2 -2 -1 -0 1 1 2 2 3
-5 -5 -5 -5 -5 -5 -5 -5 -4 -4 -4 -4 -3 -3 -2 -2 -1 -0 1 1 1 2
-5 -5 -5 -5 -5 -5 -5 -5 -5 -5 -4 -4 -4 -3 -3 -2 -2 -1 -0 -0 -0 1
-5 -5 -5 -5 -5 -5 -5 -5 -5 -5 -5 -5 -4 -4 -4 -3 -2 -2 -1 -1 -1 -0
-6 -6 -6 -6 -6 -6 -6 -6 -6 -5 -5 -5 -5 -4 -4 -4 -3 -3 -2 -2 -2 -1
-6 -6 -6 -6 -6 -6 -6 -6 -6 -6 -5 -5 -5 -5 -4 -3 -3 -3 -2 -2 -2 -1
-6 -6 -6 -6 -6 -6 -6 -5 -5 -5 -5 -5 -5 -5 -4 -4 -3 -3 -3 -2 -2 -2
-7 -7 -7 -7 -7 -6 -6 -6 -6 -5 -5 -5 -5 -4 -4 -4 -4 -4 -3 -3 -2 -2
-7 -7 -7 -7 -7 -6 -6 -6 -6 -5 -5 -5 -5 -4 -4 -4 -4 -4 -3 -3 -2 -2
-8 -8 -8 -7 -6 -6 -6 -6 -5 -5 -5 -5 -4 -4 -4 -4 -4 -4 -3 -3 -2 -2
-8 -7 -7 -7 -6 -6 -5 -5 -5 -5 -5 -5 -4 -4 -4 -3 -4 -4 -3 -2 -2 -1
Height
852 848 844 840 836 831 827 823 820 817 814 811 808 805 802 798 796 793 791 788 785 781
847 843 839 834 830 826 821 817 813 811 807 804 801 798 795 791 788 787 784 781 779 776
842 838 833 828 822 817 813 809 806 803 799 795 792 790 788 783 780 778 775 774 772 769
838 832 827 820 814 810 805 801 797 793 790 786 783 781 778 774 772 769 767 765 764 760
831 826 820 814 808 803 797 792 788 784 780 776 773 771 768 764 762 760 757 756 755 751
822 816 809 803 797 792 787 781 777 774 769 765 762 759 756 754 751 749 747 745 745 742
813 806 799 792 786 780 775 769 765 761 757 753 750 747 745 743 740 738 736 734 734 733
803 796 789 781 775 768 763 757 753 748 743 740 737 734 733 731 729 726 724 724 723 721
793 785 777 770 763 757 750 744 739 733 729 725 722 720 719 718 716 715 713 710 710 708
784 774 766 759 751 743 735 729 723 718 714 709 706 705 705 704 703 702 699 698 698 697
775 765 756 748 739 729 721 714 707 701 697 693 688 689 689 689 689 688 685 685 685 685
768 756 745 734 724 714 706 698 690 685 680 676 671 673 673 674 674 673 670 670 671 670
758 746 733 721 710 700 691 680 673 665 661 658 654 655 657 659 660 658 657 658 656 655
747 734 722 709 699 687 675 665 655 647 642 640 639 639 641 642 644 644 645 644 643 641
Wind_Speed
24 25 25 25 26 28 28 28 28 28 29 29 29 29 28 28 28 26 27 28 27 29
27 27 29 30 29 29 29 29 29 30 31 32 31 30 30 30 29 28 28 29 30 28
30 32 32 33 32 32 33 32 32 31 32 32 32 32 31 32 31 30 30 29 28 29
32 34 35 36 37 36 36 35 35 34 33 33 33 32 33 33 32 32 32 31 30 32
34 34 35 36 38 38 39 38 37 36 36 35 35 34 34 35 33 32 32 32 31 32
36 36 38 39 39 39 39 40 39 37 38 37 36 36 36 36 35 35 35 33 32 34
37 38 39 40 40 40 40 41 40 39 40 40 38 38 38 37 37 36 36 35 35 36
40 40 40 40 41 41 41 41 41 42 41 41 40 39 37 37 38 38 38 36 36 38
42 42 41 41 41 42 43 43 42 42 42 42 41 41 41 41 39 37 37 36 36 36
42 42 42 42 42 42 43 43 43 44 42 43 43 44 43 42 42 39 39 38 37 36
42 43 44 43 44 44 44 43 43 43 42 43 44 44 43 42 41 40 40 40 40 39
43 46 46 46 46 47 45 43 43 42 42 41 43 42 42 39 36 37 39 40 40 40
47 47 47 46 46 46 45 44 43 42 41 42 43 41 40 38 35 34 35 36 38 40
48 46 46 44 43 45 43 40 41 40 40 40 39 37 38 39 38 34 31 32 33 34
Wind_Direction
312 308 303 300 298 296 293 292 292 291 288 288 289 288 285 281 279 277 275 274 274 274
310 306 302 299 296 292 290 289 289 288 286 285 283 282 282 279 275 274 273 272 271 276
306 303 301 298 294 292 290 288 286 285 283 281 280 279 277 274 272 270 268 268 270 266
299 298 296 294 293 291 291 289 285 283 281 278 276 275 275 272 269 267 266 266 266 268
293 292 289 286 285 285 283 283 281 280 277 275 273 272 270 270 268 266 264 263 265 265
294 292 288 286 285 284 282 280 278 276 274 273 270 268 267 266 265 265 262 260 260 262
295 293 290 288 286 284 281 279 277 274 272 270 269 266 264 264 264 263 261 260 260 260
298 295 293 290 288 285 282 278 276 274 271 269 266 263 261 261 261 260 261 260 259 259
299 297 294 291 289 286 283 279 275 271 268 266 263 263 263 261 259 258 258 259 257 257
300 297 296 294 291 287 283 279 274 270 267 264 262 262 261 260 259 257 255 254 255 258
303 300 299 296 292 288 284 280 275 271 266 263 261 262 260 257 255 255 254 252 253 255
304 302 299 296 293 289 285 280 273 269 265 260 259 258 258 256 252 251 251 250 250 252
304 301 298 295 293 290 285 280 275 269 262 258 257 257 255 251 247 247 247 249 251 251
305 304 301 299 296 293 289 284 275 268 262 256 254 253 251 247 242 241 245 246 251 251